This is the latest recevied weather packets stored in our database for station/object WB5RFA. If no packets are shown the sender has not sent any weather packets the latest 10 day(s).
| Time | Temp. | Humidity | Pressure | Rain* | Wind** | Luminosity | Snow |
|---|---|---|---|---|---|---|---|
| 1778104632 | 16.11° C | 34% | 1016.1 hPa | 0 mm | - | - | - |
| 1778104152 | 16.11° C | 35% | 1016.1 hPa | 0 mm | - | - | - |
| 1778103672 | 16.11° C | 36% | 1016.2 hPa | 0 mm | - | - | - |
| 1778103191 | 16.11° C | 35% | 1016.4 hPa | 0 mm | - | - | - |
| 1778102711 | 16.11° C | 37% | 1016.5 hPa | 0 mm | - | - | - |
| 1778102232 | 16.11° C | 37% | 1016.4 hPa | 0 mm | - | - | - |
| 1778101753 | 16.11° C | 34% | 1016.5 hPa | 0 mm | - | - | - |
| 1778101272 | 16.11° C | 36% | 1016.6 hPa | 0 mm | - | - | - |
| 1778100791 | 16.11° C | 36% | 1016.8 hPa | 0 mm | - | - | - |
| 1778100312 | 16.11° C | 37% | 1016.8 hPa | 0 mm | - | - | - |
| 1778099832 | 15.56° C | 36% | 1016.9 hPa | 0 mm | - | - | - |
| 1778099352 | 15.56° C | 36% | 1017.1 hPa | 0 mm | - | - | - |
| 1778098871 | 15.56° C | 37% | 1017.3 hPa | 0 mm | - | - | - |
| 1778098393 | 15° C | 36% | 1017.2 hPa | 0 mm | - | - | - |
| 1778097912 | 15° C | 36% | 1017.3 hPa | 0 mm | - | - | - |
| 1778097431 | 15° C | 38% | 1017.3 hPa | 0 mm | - | - | - |
| 1778096952 | 15° C | 35% | 1017.5 hPa | 0 mm | - | - | - |
| 1778096472 | 15° C | 36% | 1017.6 hPa | 0 mm | - | - | - |
| 1778095993 | 15° C | 36% | 1017.6 hPa | 0 mm | - | - | - |
| 1778095512 | 15° C | 40% | 1017.6 hPa | 0 mm | - | - | - |
| 1778095031 | 15° C | 39% | 1017.6 hPa | 0 mm | - | - | - |
| 1778094552 | 15° C | 35% | 1017.8 hPa | 0 mm | - | - | - |
| 1778094073 | 15° C | 39% | 1017.6 hPa | 0 mm | - | - | - |
| 1778093592 | 15° C | 36% | 1017.7 hPa | 0 mm | - | - | - |
| 1778093111 | 15° C | 36% | 1017.9 hPa | 0 mm | - | - | - |
* Rain latest hour (hover to see other rain measurements)
** Current wind speed in m/s (hover to see current wind gust speed)